Regional Weather Roundup
Issued by NWS

Home | Current Version | Previous Version | Graphics & Text | Print | Product List | Glossary On
Versions: 1 2 3 4 5 6 7 8 9 10 11 12 13 14 15 16 17 18 19 20 21 22 23 24 25 26 27 28 29 30 31 32 33 34 35 36 37 38 39 40 41 42 43 44 45 46 47 48 49 50
000
ASUS44 KMEG 291510
RWRTN
TENNESSEE HOURLY STATE WEATHER ROUNDUP
NATIONAL WEATHER SERVICE MEMPHIS TN
1000 AM CDT FRI AUG 29 2014

TNZ002-004-019-021-049-052-054-088>092-291600-
WEST TENNESSEE

CITY           SKY/WX    TMP DP  RH WIND       PRES   REMARKS
MEMPHIS INTL   MOSUNNY   86  68  54 W3        29.99S
NWS MEMPHIS      N/A     87 N/A N/A MISG        N/A
JACKSON        SUNNY     81  68  64 S5        30.01R
DYERSBURG      SUNNY     82  66  57 S3        30.00S
UNION CITY     SUNNY     82  72  69 SW7       29.99S
PARIS          MOSUNNY   82  70  65 S7        30.02S
HUNTINGDON     SUNNY     83  71  66 S5        30.01R
LEXINGTON      SUNNY     82  70  65 S5        30.02S
SAVANNAH       SUNNY     82  72  69 S6        30.03S
$$

TNZ008-025-027-028-033-062-065-066-291600-
NORTH MIDDLE TENNESSEE

CITY           SKY/WX    TMP DP  RH WIND       PRES   REMARKS
NASHVILLE      MOSUNNY   86  64  47 S8        30.05S
DICKSON        SUNNY     81  66  61 S6        30.04R
PORTLAND       SUNNY     82  68  61 SE6       30.05R
CLARKSVILLE    SUNNY     81  71  71 S7        30.03R
LEBANON        SUNNY     84  65  52 S8        30.05R
SMYRNA         SUNNY     85  65  51 S7        30.06S
MURFREESBORO   SUNNY     85  63  47 SW8       30.05S
COOKEVILLE     SUNNY     84  70  61 S3        30.09S
GALLATIN       SUNNY     83  72  69 SE6       30.06S
CROSSVILLE     SUNNY     81  63  54 W6        30.15R
$$

TNZ061-075-076-078-094-096-097-291600-
SOUTH MIDDLE TENNESSEE

CITY           SKY/WX    TMP DP  RH WIND       PRES   REMARKS
LEWISBURG      SUNNY     85  67  54 S5        30.06R
FAYETTEVILLE   SUNNY     81  63  54 VRB6      30.08S
TULLAHOMA      SUNNY     82  64  54 S6        30.10R
WINCHESTER     SUNNY     84  66  54 VRB3      30.09R
MCMINNVILLE    SUNNY     86  70  58 S3        30.09R HX  90
COLUMBIA       SUNNY     82  70  65 S5        30.04R
SHELBYVILLE    SUNNY     84  68  58 S8        30.08S
$$

TNZ017-018-042-046-047-291600-
NORTHEAST TENNESSEE

CITY           SKY/WX    TMP DP  RH WIND       PRES   REMARKS
TRI CITIES     MOSUNNY   82  67  60 CALM      30.14S
ELIZABETHTON   SUNNY     81  66  61 E5        30.15S
$$

TNZ012-013-036-069-073-074-291600-
CENTRAL EAST TENNESSEE

CITY           SKY/WX    TMP DP  RH WIND       PRES   REMARKS
KNOXVILLE      MOSUNNY   83  71  67 CALM      30.10R
OAK RIDGE      SUNNY     83  71  67 CALM      30.12R
GATLINBURG     SUNNY     82  70  65 CALM      30.10S
MORRISTOWN     SUNNY     82  70  65 CALM      30.13S
$$

TNZ083-085-099-291600-
SOUTHEAST TENNESSEE

CITY           SKY/WX    TMP DP  RH WIND       PRES   REMARKS
CHATTANOOGA    MOSUNNY   83  66  56 VRB5      30.09R
$$

SKY/WX REPORTED AS FAIR MEANS FEW OR NO CLOUDS BELOW
12 THOUSAND FEET.



USA.gov is the U.S. government's official web portal to all federal, state and local government web resources and services.